Wind_Speed
6 6 6 5 5 4 4 4 5 6 6 6 6 6 6 6 6 6 6 6 6 6 5 5 5 5 5 5 5 5 5 5 5 6 6 7 7 7 8 8 8 8 8
4 5 5 4 4 4 4 4 4 5 5 5 5 5 6 6 6 6 6 5 5 6 6 5 5 6 6 6 6 6 6 7 7 7 7 8 8 8 9 9 9 9 10
4 4 4 4 4 4 4 4 4 5 5 5 5 5 6 6 6 6 6 5 5 5 6 6 6 6 7 7 7 7 8 8 9 8 8 9 9 9 10 10 10 11 10
2 3 3 4 4 4 4 4 5 5 5 5 5 6 6 6 6 6 6 6 6 6 6 7 7 7 7 8 8 8 9 9 10 10 9 9 10 11 11 11 11 11 12
2 2 3 3 4 5 5 5 5 5 5 6 6 6 6 7 7 7 6 6 7 7 8 8 8 8 9 9 9 9 10 10 10 10 10 11 11 11 11 12 12 13 13
1 2 2 3 3 4 4 5 6 6 6 6 6 6 7 7 7 7 7 7 8 8 8 8 8 9 9 9 10 10 10 11 11 11 12 12 12 12 13 13 14 14 13
2 1 1 2 2 3 4 5 6 6 7 7 7 8 8 9 9 8 8 8 9 9 9 9 9 10 10 11 11 11 12 12 12 13 13 13 13 13 13 14 15 15 14
4 3 1 1 2 3 4 5 6 6 7 8 8 8 8 9 9 10 10 10 10 10 10 10 11 11 11 12 13 13 13 13 13 14 14 14 15 15 15 15 15 15 15
4 3 2 1 1 2 4 5 6 7 8 8 8 8 8 8 9 10 11 11 11 12 11 12 12 12 13 13 13 14 14 13 13 13 14 15 15 16 16 16 16 16 16
6 4 3 2 2 3 4 4 5 6 7 8 9 9 9 9 9 10 11 11 12 12 12 11 12 13 13 14 14 13 14 14 14 14 15 15 16 16 17 17 17 17 17
6 6 5 3 2 3 4 4 5 5 6 7 8 9 9 10 10 10 11 11 12 12 13 12 13 13 13 14 14 15 14 14 14 15 15 16 16 17 17 17 17 17 18
6 6 6 5 4 4 4 5 5 6 7 8 9 10 11 11 11 11 11 11 12 13 13 13 14 14 14 14 15 15 15 15 15 15 15 16 17 17 18 18 18 18 18
6 6 6 6 6 5 5 6 6 6 7 8 9 9 11 12 12 12 12 12 12 13 13 14 14 14 15 15 15 15 15 15 15 15 16 16 17 17 18 18 19 19 20
6 6 7 7 7 7 7 7 7 7 7 8 9 10 10 10 11 12 12 12 12 13 13 14 15 15 15 15 15 16 16 17 17 17 18 17 18 18 19 20 20 20 21
7 7 8 8 8 9 8 8 8 8 8 8 9 10 10 10 10 11 12 12 12 13 14 14 14 15 16 16 17 17 17 18 18 19 19 19 19 19 19 19 20 21 21
7 8 8 9 9 9 9 9 9 8 8 9 10 11 11 11 12 12 12 12 13 14 14 14 15 15 15 16 17 17 18 18 18 18 19 20 20 20 20 21 22 22 22
9 9 9 10 10 10 10 9 9 9 10 10 11 12 12 12 13 13 14 14 15 15 16 16 16 16 16 16 16 17 18 18 19 19 20 20 21 22 22 22 22 23 24
10 11 11 12 12 13 12 12 11 11 12 13 13 13 13 13 14 14 15 16 16 17 17 17 17 17 17 18 18 18 19 19 19 20 20 20 21 22 21 22 23 23 23
13 12 13 13 14 14 14 14 14 14 14 14 14 14 14 15 16 16 17 17 18 19 19 19 18 18 19 19 20 20 20 20 20 20 20 21 22 22 22 23 24 24 25
15 15 15 15 16 16 16 17 17 16 16 16 16 16 16 17 17 18 19 20 20 21 21 21 20 20 20 21 21 21 21 21 22 22 22 22 22 23 24 24 24 24 25
17 17 17 18 18 18 18 18 19 18 19 19 18 18 18 19 20 20 21 21 22 22 23 23 23 22 22 22 22 22 22 23 23 24 24 24 24 25 25 25 25 26 26
21 21 20 20 20 20 20 20 20 20 21 21 20 20 20 21 22 22 23 23 24 24 24 25 25 24 24 24 24 24 24 24 24 25 25 25 25 26 27 27 28 28 28
24 24 23 23 22 22 22 22 23 22 22 22 22 22 22 22 23 24 24 24 25 25 25 25 25 25 25 25 25 25 26 26 26 26 26 27 27 28 29 29 30 31 30
25 25 26 25 25 25 26 26 24 24 25 24 24 24 23 24 25 25 25 26 26 26 27 27 27 26 26 26 27 27 27 28 28 28 29 29 29 30 30 31 31 31 32
28 28 28 28 27 27 28 28 27 27 26 26 25 24 25 25 26 26 26 26 27 27 28 28 27 28 28 28 29 30 30 30 30 30 31 31 31 32 32 32 32 33 33
31 31 30 30 30 30 30 29 28 28 27 26 26 26 26 27 27 27 27 28 28 28 28 29 29 29 29 30 30 31 31 32 32 32 33 33 33 33 33 34 34 34 35
Wind_Direction
149 152 157 158 160 164 160 165 177 173 176 174 178 184 184 181 183 188 196 203 207 206 211 213 215 220 223 229 235 239 241 243 245 247 249 250 252 249 252 253 258 257 258
148 156 162 163 169 176 173 169 178 185 186 181 185 191 193 196 198 202 210 215 217 223 226 229 231 234 237 240 244 247 247 250 251 252 255 256 257 253 254 256 257 258 262
150 159 172 174 176 182 186 185 185 188 192 191 195 201 207 201 203 214 222 228 233 238 239 240 242 246 248 249 252 254 254 257 258 259 261 260 259 260 259 258 259 260 263
146 163 176 182 188 191 191 193 194 196 203 204 206 209 214 213 217 227 237 243 247 250 248 249 252 254 254 254 257 258 258 262 261 259 260 262 262 263 262 262 260 260 263
128 161 171 182 197 204 202 204 205 205 211 214 217 221 227 227 230 236 246 250 254 254 256 258 259 261 260 259 259 260 263 266 265 261 261 263 265 264 262 264 262 264 266
93 163 191 200 209 215 215 220 221 223 224 224 226 228 230 234 236 241 249 255 257 256 259 263 264 264 263 263 263 264 267 267 265 262 264 264 264 264 263 263 262 264 267
71 127 197 221 237 234 234 238 237 238 233 235 233 232 236 238 236 243 253 259 262 262 262 264 267 264 264 267 266 266 268 269 268 265 265 263 261 262 264 265 264 264 267
49 51 29 288 251 246 246 247 245 240 238 238 239 237 240 241 243 248 253 258 264 268 269 267 268 268 269 269 269 270 268 270 269 267 265 264 263 264 265 266 266 266 267
38 28 20 1 305 265 256 254 246 243 241 242 244 244 245 248 253 256 258 261 264 267 270 270 270 268 267 268 270 270 269 268 268 268 266 265 265 263 264 265 266 267 267
27 20 359 329 299 285 269 263 258 251 247 245 243 248 249 252 256 259 262 263 264 266 269 272 273 270 269 270 272 273 271 269 269 269 266 265 265 265 266 268 267 268 269
15 18 11 353 324 308 290 276 267 261 255 250 248 251 254 259 263 265 267 268 267 268 269 272 272 273 273 274 276 277 275 273 271 270 266 265 265 266 269 270 268 269 270
4 4 0 351 332 315 304 294 284 272 263 259 257 258 260 264 264 267 268 267 267 270 271 273 275 276 276 277 279 278 277 276 274 274 272 268 267 266 269 271 269 268 270
352 347 348 337 324 318 311 299 291 279 270 265 266 268 267 268 266 266 266 266 271 273 274 274 275 278 279 279 277 280 279 278 276 276 276 273 271 269 269 270 271 269 270
334 334 335 335 329 319 310 301 294 287 279 276 274 275 272 269 267 266 266 268 273 276 276 276 278 279 280 280 280 281 281 280 277 276 275 274 273 273 271 271 272 272 271
317 321 326 326 325 325 318 312 299 287 280 281 282 281 279 280 277 276 273 273 276 279 279 278 278 279 278 280 281 283 283 282 279 277 274 274 274 274 274 273 273 274 273
314 313 318 320 319 321 317 313 304 292 288 284 284 290 289 284 282 280 278 278 281 283 283 281 279 279 280 280 282 282 283 281 281 282 279 275 274 274 275 276 276 274 273
306 303 307 310 312 314 313 309 305 297 295 292 289 292 293 290 284 283 283 282 283 283 283 285 283 280 279 280 282 284 284 282 282 283 281 278 277 278 278 277 277 276 275
296 296 297 299 301 303 302 299 297 298 296 294 294 293 292 293 291 288 287 285 285 284 286 288 286 282 281 280 282 283 284 283 281 282 283 281 280 279 278 279 281 279 279
288 288 290 292 295 296 295 294 297 295 296 296 295 296 293 292 293 291 290 290 289 287 287 289 289 285 283 284 285 284 284 283 284 284 283 281 280 281 281 281 281 280 280
286 286 287 289 289 291 292 292 292 293 293 292 292 291 291 292 293 292 289 288 288 287 286 286 286 286 283 282 283 284 284 284 284 283 284 283 282 281 282 282 282 282 281
282 285 287 288 289 289 290 289 289 289 289 290 290 289 289 290 292 292 290 288 288 287 285 284 284 284 282 281 281 282 283 284 283 283 283 283 282 281 283 283 283 283 282
279 281 282 283 284 286 288 287 285 285 288 291 292 292 291 289 291 291 289 288 288 288 286 284 283 282 283 282 282 282 282 284 284 283 283 283 283 283 284 284 284 284 284
278 279 277 278 280 282 284 284 283 283 286 288 288 290 293 291 292 291 288 288 288 288 286 283 281 280 281 281 280 281 283 283 284 285 284 284 284 284 284 284 284 284 284
277 276 276 277 278 278 279 281 282 283 283 285 286 286 288 288 289 288 286 287 287 286 285 283 281 280 280 281 281 281 282 283 284 284 285 286 285 285 285 285 284 284 284
277 276 276 277 277 279 280 281 281 283 284 286 287 285 287 288 288 287 285 286 287 285 284 283 280 280 280 280 282 282 282 283 283 284 285 287 286 286 286 285 284 283 284
275 275 276 276 275 276 277 279 280 283 283 284 284 284 287 288 287 286 285 284 285 285 284 282 281 281 281 281 281 283 284 283 283 285 286 287 287 286 285 285 284 284 284
Height
5885 5886 5886 5887 5887 5887 5888 5889 5889 5890 5890 5890 5890 5891 5891 5892 5893 5894 5894 5894 5895 5895 5895 5895 5895 5895 5895 5894 5894 5894 5894 5894 5894 5894 5894 5894 5894 5894 5894 5894 5894 5893 5893
5885 5886 5886 5886 5887 5887 5888 5889 5889 5890 5890 5890 5891 5891 5891 5892 5892 5893 5894 5894 5894 5894 5894 5894 5894 5894 5894 5893 5893 5893 5893 5893 5893 5892 5892 5892 5892 5892 5892 5892 5892 5892 5891
5886 5886 5887 5887 5887 5888 5888 5888 5889 5889 5889 5890 5890 5890 5891 5891 5892 5893 5893 5893 5893 5893 5893 5893 5893 5893 5892 5892 5892 5891 5891 5891 5891 5891 5890 5890 5890 5890 5890 5889 5889 5889 5889
5886 5886 5887 5887 5887 5888 5888 5888 5889 5889 5889 5889 5890 5890 5890 5891 5891 5892 5892 5892 5892 5892 5892 5892 5891 5891 5891 5890 5890 5890 5889 5889 5888 5888 5888 5888 5888 5888 5887 5887 5887 5887 5887
5886 5886 5886 5887 5887 5887 5887 5887 5888 5888 5888 5889 5889 5889 5889 5890 5890 5890 5891 5890 5890 5890 5890 5890 5889 5889 5889 5889 5888 5888 5887 5887 5887 5886 5886 5886 5886 5885 5885 5885 5885 5884 5884
5886 5885 5886 5886 5886 5886 5886 5887 5886 5887 5887 5888 5888 5888 5888 5888 5889 5889 5889 5889 5889 5888 5888 5888 5888 5887 5887 5886 5886 5886 5885 5885 5885 5884 5884 5883 5883 5883 5882 5882 5882 5881 5881
5885 5885 5885 5885 5885 5885 5885 5885 5885 5885 5886 5886 5886 5887 5887 5887 5887 5887 5887 5887 5887 5886 5886 5886 5885 5885 5884 5884 5883 5883 5883 5882 5882 5881 5881 5880 5880 5880 5879 5879 5879 5878 5878
5885 5885 5885 5884 5884 5884 5884 5884 5884 5884 5884 5884 5884 5885 5885 5886 5886 5886 5885 5885 5885 5885 5884 5883 5883 5882 5882 5881 5881 5880 5880 5879 5878 5878 5877 5877 5877 5876 5876 5876 5875 5875 5874
5885 5885 5884 5884 5883 5883 5883 5883 5882 5882 5882 5883 5883 5883 5883 5883 5883 5884 5883 5883 5882 5882 5881 5881 5880 5879 5879 5878 5877 5877 5876 5875 5875 5874 5874 5873 5873 5873 5872 5872 5871 5871 5871
5885 5884 5884 5883 5883 5882 5882 5881 5881 5881 5880 5880 5881 5881 5881 5881 5881 5881 5881 5880 5880 5879 5878 5878 5877 5876 5876 5875 5874 5873 5873 5872 5871 5871 5870 5870 5870 5869 5869 5868 5867 5867 5867
5885 5884 5883 5882 5882 5881 5880 5880 5880 5879 5879 5879 5879 5879 5879 5879 5879 5879 5878 5878 5877 5876 5875 5875 5874 5873 5872 5871 5871 5870 5869 5869 5868 5867 5866 5866 5865 5865 5865 5864 5863 5863 5863
5885 5884 5883 5882 5881 5880 5879 5878 5878 5877 5877 5877 5877 5876 5876 5876 5876 5875 5875 5874 5874 5873 5872 5872 5871 5870 5869 5868 5868 5867 5866 5865 5864 5863 5863 5862 5861 5861 5860 5860 5859 5859 5858
5884 5883 5882 5881 5880 5879 5878 5877 5876 5875 5875 5875 5874 5874 5873 5873 5872 5872 5871 5871 5870 5869 5869 5868 5867 5866 5865 5865 5864 5863 5862 5861 5860 5859 5859 5858 5857 5856 5856 5855 5854 5854 5853
5883 5882 5881 5879 5878 5877 5876 5875 5874 5873 5872 5872 5871 5871 5870 5869 5869 5868 5868 5867 5866 5866 5865 5864 5863 5862 5862 5860 5860 5859 5858 5857 5856 5855 5854 5854 5853 5852 5851 5850 5849 5849 5848
5881 5880 5879 5877 5876 5875 5874 5873 5871 5870 5870 5869 5869 5868 5867 5866 5866 5865 5864 5864 5863 5862 5861 5860 5859 5858 5857 5856 5855 5854 5853 5852 5851 5850 5849 5849 5848 5847 5846 5845 5844 5843 5842
5879 5878 5876 5875 5874 5873 5871 5870 5868 5867 5867 5866 5866 5865 5864 5863 5863 5862 5861 5860 5859 5858 5857 5856 5855 5854 5853 5852 5851 5849 5848 5848 5847 5845 5844 5843 5842 5842 5841 5840 5839 5838 5837
5877 5875 5874 5873 5871 5870 5868 5867 5866 5864 5864 5863 5862 5861 5860 5859 5858 5858 5857 5856 5855 5854 5853 5852 5850 5849 5848 5847 5846 5845 5844 5842 5841 5840 5839 5838 5837 5836 5835 5834 5833 5832 5831
5874 5872 5871 5869 5868 5866 5865 5864 5862 5861 5860 5859 5858 5857 5856 5855 5854 5853 5853 5852 5851 5850 5849 5847 5846 5845 5843 5842 5841 5840 5839 5837 5836 5835 5833 5832 5831 5830 5829 5828 5826 5825 5824
5870 5868 5867 5865 5864 5862 5861 5859 5858 5857 5856 5855 5853 5852 5851 5851 5850 5849 5848 5847 5846 5845 5843 5842 5841 5840 5838 5837 5836 5834 5833 5832 5830 5829 5827 5826 5825 5824 5822 5821 5820 5819 5817
5865 5863 5862 5861 5859 5858 5856 5855 5854 5852 5851 5850 5849 5848 5847 5846 5845 5844 5843 5841 5840 5839 5838 5837 5835 5834 5833 5831 5830 5829 5827 5826 5824 5823 5821 5820 5819 5817 5816 5815 5813 5812 5810
5860 5859 5857 5856 5855 5853 5851 5850 5849 5848 5846 5845 5843 5842 5841 5840 5839 5838 5837 5835 5834 5833 5831 5830 5829 5827 5826 5825 5824 5823 5821 5820 5818 5816 5815 5813 5812 5810 5809 5808 5806 5804 5803
5854 5853 5852 5850 5849 5847 5846 5844 5843 5842 5840 5839 5838 5836 5835 5834 5833 5832 5830 5829 5827 5826 5824 5823 5822 5821 5820 5818 5817 5816 5814 5813 5811 5810 5808 5807 5805 5803 5802 5800 5798 5797 5795
5847 5846 5845 5843 5842 5841 5839 5837 5836 5835 5834 5832 5831 5830 5828 5827 5826 5824 5823 5821 5820 5818 5817 5815 5814 5813 5812 5811 5810 5808 5807 5805 5804 5803 5801 5799 5797 5795 5793 5791 5790 5788 5787
5839 5838 5837 5836 5834 5833 5832 5829 5827 5827 5826 5825 5824 5823 5821 5820 5818 5816 5815 5813 5812 5810 5809 5807 5806 5805 5804 5803 5802 5801 5799 5797 5796 5794 5792 5791 5788 5786 5785 5783 5781 5779 5777
5831 5830 5829 5828 5827 5826 5824 5822 5819 5819 5818 5817 5816 5815 5813 5812 5810 5808 5807 5805 5804 5802 5800 5799 5798 5796 5795 5794 5793 5791 5790 5789 5787 5785 5783 5782 5779 5777 5775 5773 5771 5769 5768
5822 5821 5820 5819 5818 5817 5815 5813 5811 5811 5810 5809 5808 5806 5805 5803 5802 5800 5798 5797 5795 5793 5792 5790 5789 5787 5786 5784 5783 5782 5780 5779 5777 5776 5774 5772 5770 5768 5766 5764 5761 5759 5757